Retour au catalogue

STARLINK-4607

ActifCommunicationsVLEO
NORAD 53740·PAYLOAD·🇺🇸 United States

Lancé Sep 5, 2022 depuis Cape Canaveral Space Force Station

Loading…

Prochains Passages (prochaines 24 heures)

TLE

FraisSource: CelesTrak SupGP

Époque: Sep 15, 2026, 02:04 UTC

1 53740C 22107AS  26258.08659722  .00417710  00000+0  36465-2 0  2586
2 53740  53.1580 113.9897 0001380  83.2643 105.1130 15.68093104    18

Suivez STARLINK-4607 en temps réel avec AllMySat

Download on the App Store